Location: Aressy
(43.2833°N, 0.3167°W)
Time: 21:26:32
(UTC+00:00)

CZ-2C R/B - Visible Passes

Search period start: 05 May 2021 00:00
Search period end: 15 May 2021 00:00
Orbit: 784 x 871 km, 98.2° (Epoch: 05 May)

Date Brightness Start Highest point End Pass type
(mag) Time Alt. Az. Time Alt. Az. Time Alt. Az.
05 May 5.4 20:16:46 10° NNW 20:20:47 22° WNW 20:24:51 10° WSW visible
06 May 4.8 19:57:43 10° N 20:02:21 31° WNW 20:07:03 10° SW visible
07 May 4.1 19:38:50 10° N 19:43:52 44° WNW 19:49:00 10° SW visible
09 May 5.8 20:43:42 10° NNW 20:46:18 14° WNW 20:48:56 10° W visible
10 May 5.6 20:24:14 10° NNW 20:27:57 19° WNW 20:31:43 10° WSW visible
11 May 5.1 20:05:06 10° N 20:09:33 27° WNW 20:14:04 10° WSW visible
12 May 4.5 19:46:09 10° N 19:51:05 38° WNW 19:56:06 10° SW visible
14 May 6.0 20:51:30 10° NW 20:53:26 12° WNW 20:55:23 10° WNW visible
